Simultaneous Nadir Overpasses (SNOs) Predictions

Prediction of SNOs between GOES-16 and TERRA Satellite Orbit:

Table of predicted SNOs for the next 14.0 days since TLE Epoch: 5/30/2020
Index Date Time (GOES-16) GOES-16 Lat,Lon TERRA Lat,Lon Distance(km) Time Diff (sec)
1 05/31/2020 03:20:56 -0.02, -75.19 0.43, -73.06 241.71 80
2 05/31/2020 15:42:12 0.01, -75.20 0.62, -78.22 342.77 80
3 06/02/2020 15:30:00 0.01, -75.21 0.00, -75.26 6.02 80
4 06/04/2020 15:20:28 0.01, -75.22 -0.62, -72.30 331.90 80
5 06/05/2020 03:41:52 -0.01, -75.21 -0.50, -77.49 259.74 80
6 06/07/2020 03:27:00 -0.00, -75.22 0.13, -74.53 78.11 80
7 06/09/2020 03:14:48 0.00, -75.24 0.76, -71.57 416.62 80
8 06/09/2020 15:36:04 -0.00, -75.26 0.29, -76.74 167.41 80
9 06/11/2020 15:26:32 -0.00, -75.29 -0.34, -73.78 172.31 80
10 06/12/2020 03:47:56 0.00, -75.28 -0.76, -78.97 418.38 80




NCC Satellite Simultaneous Nadir Overpasses (SNOs) Prediction Service
